Time,TemperatureF,DewpointF,PressureIn,WindDirection,WindDirectionDegrees,WindSpeedMPH,WindSpeedGustMPH,Humidity,HourlyPrecipIn,Conditions,Clouds,dailyrainin,SoftwareType,DateUTC
2013-06-07 00:02:00,62.8,56.2,29.91,NNE,32,0.0,0.0,79,0.00,,---,0.00,VWS V14.00,2013-06-07 05:02:00,
2013-06-07 00:07:00,62.6,56.3,29.91,NNE,32,0.0,0.0,80,0.00,,---,0.00,VWS V14.00,2013-06-07 05:07:00,
2013-06-07 00:12:00,62.4,56.5,29.91,NNE,32,0.0,0.0,81,0.00,,---,0.00,VWS V14.00,2013-06-07 05:12:00,
2013-06-07 00:17:00,62.2,56.3,29.91,NNE,32,0.0,0.0,81,0.00,,---,0.00,VWS V14.00,2013-06-07 05:17:00,
2013-06-07 00:22:00,61.8,55.9,29.91,NNE,32,0.0,0.0,81,0.00,,---,0.00,VWS V14.00,2013-06-07 05:22:00,
2013-06-07 00:27:00,61.5,56.0,29.91,NNE,32,0.0,0.0,82,0.00,,---,0.00,VWS V14.00,2013-06-07 05:27:00,
2013-06-07 00:32:00,61.3,55.8,29.91,NNE,32,0.0,0.0,82,0.00,,---,0.00,VWS V14.00,2013-06-07 05:32:00,
2013-06-07 00:37:00,61.1,55.6,29.91,NNE,32,0.0,0.0,82,0.00,,---,0.00,VWS V14.00,2013-06-07 05:37:00,
2013-06-07 00:42:00,60.9,55.4,29.91,NNE,32,0.0,0.0,82,0.00,,---,0.00,VWS V14.00,2013-06-07 05:42:00,
2013-06-07 00:47:00,60.7,55.2,29.91,NNE,32,0.0,0.0,82,0.00,,---,0.00,VWS V14.00,2013-06-07 05:47:00,
2013-06-07 00:52:00,60.5,55.3,29.91,NNE,32,0.0,0.0,83,0.00,,---,0.00,VWS V14.00,2013-06-07 05:52:00,
2013-06-07 00:57:00,60.1,55.3,29.91,NNE,32,0.0,0.0,84,0.00,,---,0.00,VWS V14.00,2013-06-07 05:57:00,
2013-06-07 01:02:00,59.9,55.4,29.91,NNE,32,0.0,0.0,85,0.00,,---,0.00,VWS V14.00,2013-06-07 06:02:00,
2013-06-07 01:07:00,59.7,55.2,29.91,NNE,32,0.0,0.0,85,0.00,,---,0.00,VWS V14.00,2013-06-07 06:07:00,
2013-06-07 01:12:00,59.5,55.0,29.91,NNE,32,0.0,0.0,85,0.00,,---,0.00,VWS V14.00,2013-06-07 06:12:00,
2013-06-07 01:17:00,59.3,55.1,29.91,NNE,32,0.0,0.0,86,0.00,,---,0.00,VWS V14.00,2013-06-07 06:17:00,
2013-06-07 01:22:00,59.0,54.8,29.91,NNE,32,0.0,0.0,86,0.00,,---,0.00,VWS V14.00,2013-06-07 06:22:00,
2013-06-07 01:27:00,59.0,55.1,29.91,NNE,32,0.0,0.0,87,0.00,,---,0.00,VWS V14.00,2013-06-07 06:27:00,
2013-06-07 01:32:00,59.0,55.1,29.91,NNE,32,0.0,0.0,87,0.00,,---,0.00,VWS V14.00,2013-06-07 06:32:00,
2013-06-07 01:37:00,59.0,55.1,29.91,NNE,32,0.0,0.0,87,0.00,,---,0.00,VWS V14.00,2013-06-07 06:37:00,
2013-06-07 01:42:00,59.0,55.1,29.91,NNE,32,0.0,0.0,87,0.00,,---,0.00,VWS V14.00,2013-06-07 06:42:00,
2013-06-07 01:47:00,58.8,55.0,29.91,NNE,32,0.0,0.0,87,0.00,,---,0.00,VWS V14.00,2013-06-07 06:47:00,
2013-06-07 01:52:00,58.6,54.8,29.91,NNE,32,0.0,0.0,87,0.00,,---,0.00,VWS V14.00,2013-06-07 06:52:00,
2013-06-07 01:57:00,58.5,54.7,29.91,NNE,32,0.0,0.0,87,0.00,,---,0.00,VWS V14.00,2013-06-07 06:57:00,
2013-06-07 02:02:00,58.5,54.7,29.91,NNE,32,0.0,0.0,87,0.00,,---,0.00,VWS V14.00,2013-06-07 07:02:00,
2013-06-07 02:07:00,58.5,54.7,29.91,NNE,32,0.0,0.0,87,0.00,,---,0.00,VWS V14.00,2013-06-07 07:07:00,
2013-06-07 02:12:00,58.6,55.1,29.91,NNE,32,0.0,0.0,88,0.00,,---,0.00,VWS V14.00,2013-06-07 07:12:00,
2013-06-07 02:17:00,58.6,54.8,29.91,NNE,32,0.0,0.0,87,0.00,,---,0.00,VWS V14.00,2013-06-07 07:17:00,
2013-06-07 02:22:00,58.7,54.8,29.91,NNE,32,0.0,0.0,87,0.00,,---,0.00,VWS V14.00,2013-06-07 07:22:00,
2013-06-07 02:27:00,58.9,55.0,29.91,NNE,32,0.0,0.0,87,0.00,,---,0.00,VWS V14.00,2013-06-07 07:27:00,
2013-06-07 02:32:00,59.0,55.1,29.91,NNE,32,0.0,0.0,87,0.00,,---,0.00,VWS V14.00,2013-06-07 07:32:00,
2013-06-07 02:37:00,59.0,54.8,29.91,NNE,32,0.0,0.0,86,0.00,,---,0.00,VWS V14.00,2013-06-07 07:37:00,
2013-06-07 02:42:00,59.0,54.8,29.92,NNE,32,0.0,0.0,86,0.00,,---,0.00,VWS V14.00,2013-06-07 07:42:00,
2013-06-07 02:47:00,59.0,54.8,29.91,NNE,32,0.0,0.0,86,0.00,,---,0.00,VWS V14.00,2013-06-07 07:47:00,
2013-06-07 02:52:00,59.0,54.5,29.91,NNE,32,0.0,0.0,85,0.00,,---,0.00,VWS V14.00,2013-06-07 07:52:00,
2013-06-07 02:57:00,59.0,54.5,29.91,NNE,32,0.0,0.0,85,0.00,,---,0.00,VWS V14.00,2013-06-07 07:57:00,
2013-06-07 03:02:00,59.0,54.5,29.91,NNE,32,0.0,0.0,85,0.00,,---,0.00,VWS V14.00,2013-06-07 08:02:00,
2013-06-07 03:07:00,59.0,54.5,29.91,NNE,32,0.0,0.0,85,0.00,,---,0.00,VWS V14.00,2013-06-07 08:07:00,
2013-06-07 03:12:00,59.0,54.2,29.91,NNE,32,0.0,0.0,84,0.00,,---,0.00,VWS V14.00,2013-06-07 08:12:00,
2013-06-07 03:17:00,59.0,54.2,29.92,NNE,32,0.0,0.0,84,0.00,,---,0.00,VWS V14.00,2013-06-07 08:17:00,
2013-06-07 03:22:00,59.0,54.2,29.92,NNE,32,0.0,0.0,84,0.00,,---,0.00,VWS V14.00,2013-06-07 08:22:00,
2013-06-07 03:27:00,59.1,54.3,29.92,NNE,32,0.0,0.0,84,0.00,,---,0.00,VWS V14.00,2013-06-07 08:27:00,
2013-06-07 03:32:00,59.3,54.2,29.91,NNE,32,0.0,0.0,83,0.00,,---,0.00,VWS V14.00,2013-06-07 08:32:00,
2013-06-07 03:37:00,59.3,54.5,29.91,NNE,32,0.0,0.0,84,0.00,,---,0.00,VWS V14.00,2013-06-07 08:37:00,
2013-06-07 03:42:00,59.3,54.5,29.91,NNE,32,0.0,0.0,84,0.00,,---,0.00,VWS V14.00,2013-06-07 08:42:00,
2013-06-07 03:47:00,59.1,54.3,29.91,NNE,32,0.0,0.0,84,0.00,,---,0.00,VWS V14.00,2013-06-07 08:47:00,
2013-06-07 03:52:00,59.0,54.2,29.91,NNE,32,0.0,0.0,84,0.00,,---,0.00,VWS V14.00,2013-06-07 08:52:00,
2013-06-07 03:57:00,59.0,54.2,29.91,NNE,32,0.0,0.0,84,0.00,,---,0.00,VWS V14.00,2013-06-07 08:57:00,
2013-06-07 04:02:00,59.0,54.2,29.91,NNE,32,0.0,0.0,84,0.00,,---,0.00,VWS V14.00,2013-06-07 09:02:00,
2013-06-07 04:07:00,59.0,54.5,29.91,NNE,32,0.0,0.0,85,0.00,,---,0.00,VWS V14.00,2013-06-07 09:07:00,
2013-06-07 04:12:00,59.0,54.5,29.91,NNE,32,0.0,0.0,85,0.00,,---,0.00,VWS V14.00,2013-06-07 09:12:00,
2013-06-07 04:17:00,58.7,54.2,29.91,NNE,32,0.0,0.0,85,0.00,,---,0.00,VWS V14.00,2013-06-07 09:17:00,
2013-06-07 04:22:00,58.6,54.1,29.91,NNE,32,0.0,0.0,85,0.00,,---,0.00,VWS V14.00,2013-06-07 09:22:00,
2013-06-07 04:27:00,58.5,54.0,29.91,NNE,32,0.0,0.0,85,0.00,,---,0.00,VWS V14.00,2013-06-07 09:27:00,
2013-06-07 04:32:00,58.3,54.1,29.91,NNE,32,0.0,0.0,86,0.00,,---,0.00,VWS V14.00,2013-06-07 09:32:00,
2013-06-07 04:37:00,58.2,54.0,29.91,NNE,32,0.0,0.0,86,0.00,,---,0.00,VWS V14.00,2013-06-07 09:37:00,
2013-06-07 04:42:00,58.1,53.9,29.91,NNE,32,0.0,0.0,86,0.00,,---,0.00,VWS V14.00,2013-06-07 09:42:00,
2013-06-07 04:47:00,57.8,53.7,29.91,NNE,32,0.0,0.0,86,0.00,,---,0.00,VWS V14.00,2013-06-07 09:47:00,
2013-06-07 04:52:00,57.6,53.5,29.92,NNE,32,0.0,0.0,86,0.00,,---,0.00,VWS V14.00,2013-06-07 09:52:00,
2013-06-07 04:57:00,57.4,53.6,29.91,NNE,32,0.0,0.0,87,0.00,,---,0.00,VWS V14.00,2013-06-07 09:57:00,
2013-06-07 05:02:00,57.3,53.5,29.92,NNE,32,0.0,0.0,87,0.00,,---,0.00,VWS V14.00,2013-06-07 10:02:00,
2013-06-07 05:07:00,57.2,53.4,29.92,NNE,32,0.0,0.0,87,0.00,,---,0.00,VWS V14.00,2013-06-07 10:07:00,
2013-06-07 05:12:00,56.9,53.1,29.92,NNE,32,0.0,0.0,87,0.00,,---,0.00,VWS V14.00,2013-06-07 10:12:00,
2013-06-07 05:17:00,56.8,53.3,29.92,NNE,32,0.0,0.0,88,0.00,,---,0.00,VWS V14.00,2013-06-07 10:17:00,
2013-06-07 05:22:00,56.6,53.1,29.92,NNE,32,0.0,0.0,88,0.00,,---,0.00,VWS V14.00,2013-06-07 10:22:00,
2013-06-07 05:27:00,56.5,53.0,29.92,NNE,32,0.0,0.0,88,0.00,,---,0.00,VWS V14.00,2013-06-07 10:27:00,
2013-06-07 05:32:00,56.4,52.9,29.92,NNE,32,0.0,0.0,88,0.00,,---,0.00,VWS V14.00,2013-06-07 10:32:00,
2013-06-07 05:37:00,56.4,52.9,29.92,NNE,32,0.0,0.0,88,0.00,,---,0.00,VWS V14.00,2013-06-07 10:37:00,
2013-06-07 05:42:00,56.4,53.2,29.92,NNE,32,0.0,0.0,89,0.00,,---,0.00,VWS V14.00,2013-06-07 10:42:00,
2013-06-07 05:47:00,56.5,53.3,29.92,NNE,32,0.0,0.0,89,0.00,,---,0.00,VWS V14.00,2013-06-07 10:47:00,
2013-06-07 05:52:00,56.5,53.3,29.92,NNE,32,0.0,0.0,89,0.00,,---,0.00,VWS V14.00,2013-06-07 10:52:00,
2013-06-07 05:57:00,56.4,53.2,29.92,NNE,32,0.0,0.0,89,0.00,,---,0.00,VWS V14.00,2013-06-07 10:57:00,
2013-06-07 06:02:00,56.5,53.3,29.92,NNE,32,0.0,0.0,89,0.00,,---,0.00,VWS V14.00,2013-06-07 11:02:00,
2013-06-07 06:07:00,56.4,53.2,29.92,NNE,32,0.0,0.0,89,0.00,,---,0.00,VWS V14.00,2013-06-07 11:07:00,
2013-06-07 06:12:00,56.3,53.1,29.92,NNE,32,0.0,0.0,89,0.00,,---,0.00,VWS V14.00,2013-06-07 11:12:00,
2013-06-07 06:17:00,56.3,53.1,29.92,NNE,32,0.0,0.0,89,0.00,,---,0.00,VWS V14.00,2013-06-07 11:17:00,
2013-06-07 06:22:00,56.3,53.1,29.93,NNE,32,0.0,0.0,89,0.00,,---,0.00,VWS V14.00,2013-06-07 11:22:00,
2013-06-07 06:27:00,56.3,53.1,29.93,NNE,32,0.0,0.0,89,0.00,,---,0.00,VWS V14.00,2013-06-07 11:27:00,
2013-06-07 06:32:00,56.3,53.1,29.93,NNE,32,0.0,0.0,89,0.00,,---,0.00,VWS V14.00,2013-06-07 11:32:00,
2013-06-07 06:37:00,56.3,53.4,29.93,NNE,32,0.0,0.0,90,0.00,,---,0.00,VWS V14.00,2013-06-07 11:37:00,
2013-06-07 06:42:00,56.3,53.4,29.93,NNE,32,0.0,0.0,90,0.00,,---,0.00,VWS V14.00,2013-06-07 11:42:00,
2013-06-07 06:47:00,56.6,53.7,29.93,NNE,32,0.0,0.0,90,0.00,,---,0.00,VWS V14.00,2013-06-07 11:47:00,
2013-06-07 06:52:00,56.9,54.0,29.93,NNE,32,0.0,0.0,90,0.00,,---,0.00,VWS V14.00,2013-06-07 11:52:00,
2013-06-07 06:57:00,57.1,54.2,29.93,NNE,32,0.0,0.0,90,0.00,,---,0.00,VWS V14.00,2013-06-07 11:57:00,
2013-06-07 07:02:00,57.5,54.9,29.93,NNE,32,0.0,0.0,91,0.00,,---,0.00,VWS V14.00,2013-06-07 12:02:00,
2013-06-07 07:07:00,57.7,55.1,29.93,NNE,32,0.0,0.0,91,0.00,,---,0.00,VWS V14.00,2013-06-07 12:07:00,
2013-06-07 07:12:00,58.1,55.5,29.93,NNE,32,0.0,0.0,91,0.00,,---,0.00,VWS V14.00,2013-06-07 12:12:00,
2013-06-07 07:17:00,58.5,55.9,29.93,NNE,32,0.0,0.0,91,0.00,,---,0.00,VWS V14.00,2013-06-07 12:17:00,
2013-06-07 07:22:00,59.0,56.7,29.93,NNE,32,0.0,0.0,92,0.00,,---,0.00,VWS V14.00,2013-06-07 12:22:00,
2013-06-07 07:27:00,59.5,57.2,29.94,NNE,32,0.0,0.0,92,0.00,,---,0.00,VWS V14.00,2013-06-07 12:27:00,
2013-06-07 07:32:00,59.9,57.3,29.94,NNE,32,0.0,0.0,91,0.00,,---,0.00,VWS V14.00,2013-06-07 12:32:00,
2013-06-07 07:37:00,60.2,57.6,29.94,NNE,32,0.0,0.0,91,0.00,,---,0.00,VWS V14.00,2013-06-07 12:37:00,
2013-06-07 07:42:00,60.6,58.0,29.94,NNE,32,0.0,0.0,91,0.00,,---,0.00,VWS V14.00,2013-06-07 12:42:00,
2013-06-07 07:47:00,61.0,58.4,29.94,NNE,32,0.0,0.0,91,0.00,,---,0.00,VWS V14.00,2013-06-07 12:47:00,
2013-06-07 07:52:00,61.5,58.5,29.94,NNE,32,0.0,0.0,90,0.00,,---,0.00,VWS V14.00,2013-06-07 12:52:00,
2013-06-07 07:57:00,62.0,59.0,29.95,NNE,32,0.0,0.0,90,0.00,,---,0.00,VWS V14.00,2013-06-07 12:57:00,
2013-06-07 08:02:00,62.5,59.5,29.95,NNE,32,0.0,0.0,90,0.00,,---,0.00,VWS V14.00,2013-06-07 13:02:00,
2013-06-07 08:07:00,62.9,59.6,29.95,NNE,32,0.0,1.0,89,0.00,,---,0.00,VWS V14.00,2013-06-07 13:07:00,
2013-06-07 08:12:00,63.3,60.0,29.95,NNE,32,0.0,0.0,89,0.00,,---,0.00,VWS V14.00,2013-06-07 13:12:00,
2013-06-07 08:17:00,64.2,60.9,29.95,NNE,32,0.0,0.0,89,0.00,,---,0.00,VWS V14.00,2013-06-07 13:17:00,
2013-06-07 08:22:00,64.7,61.1,29.95,NNE,32,3.0,4.0,88,0.00,,---,0.00,VWS V14.00,2013-06-07 13:22:00,
2013-06-07 08:27:00,65.2,60.9,29.95,NNE,32,0.0,4.0,86,0.00,,---,0.00,VWS V14.00,2013-06-07 13:27:00,
2013-06-07 08:32:00,65.6,61.3,29.96,NNE,32,0.0,3.0,86,0.00,,---,0.00,VWS V14.00,2013-06-07 13:32:00,
2013-06-07 08:37:00,66.1,61.1,29.95,NNE,32,0.0,3.0,84,0.00,,---,0.00,VWS V14.00,2013-06-07 13:37:00,
2013-06-07 08:42:00,66.6,60.9,29.95,NNE,32,3.0,4.0,82,0.00,,---,0.00,VWS V14.00,2013-06-07 13:42:00,
2013-06-07 08:47:00,67.2,60.8,29.95,NNE,32,0.0,4.0,80,0.00,,---,0.00,VWS V14.00,2013-06-07 13:47:00,
2013-06-07 08:52:00,67.7,60.6,29.95,NNE,32,1.0,4.0,78,0.00,,---,0.00,VWS V14.00,2013-06-07 13:52:00,
2013-06-07 08:57:00,68.2,60.3,29.95,NNE,32,0.0,4.0,76,0.00,,---,0.00,VWS V14.00,2013-06-07 13:57:00,
2013-06-07 09:02:00,68.8,60.9,29.95,NNE,32,0.0,2.0,76,0.00,,---,0.00,VWS V14.00,2013-06-07 14:02:00,
2013-06-07 09:07:00,69.4,61.5,29.94,NNE,32,1.0,4.0,76,0.00,,---,0.00,VWS V14.00,2013-06-07 14:07:00,
2013-06-07 09:12:00,69.8,61.2,29.94,NE,35,6.0,7.0,74,0.00,,---,0.00,VWS V14.00,2013-06-07 14:12:00,
2013-06-07 09:17:00,70.1,60.7,29.94,NE,35,4.0,6.0,72,0.00,,---,0.00,VWS V14.00,2013-06-07 14:17:00,
2013-06-07 09:22:00,70.4,61.0,29.95,NE,34,8.0,8.0,72,0.00,,---,0.00,VWS V14.00,2013-06-07 14:22:00,
2013-06-07 09:27:00,70.6,60.8,29.95,NE,34,9.0,9.0,71,0.00,,---,0.00,VWS V14.00,2013-06-07 14:27:00,
2013-06-07 09:32:00,70.9,61.0,29.95,NNE,29,3.0,9.0,71,0.00,,---,0.00,VWS V14.00,2013-06-07 14:32:00,
2013-06-07 09:37:00,71.2,61.3,29.94,NE,34,5.0,9.0,71,0.00,,---,0.00,VWS V14.00,2013-06-07 14:37:00,
2013-06-07 09:42:00,71.5,61.2,29.94,NE,34,4.0,7.0,70,0.00,,---,0.00,VWS V14.00,2013-06-07 14:42:00,
2013-06-07 09:47:00,71.8,61.1,29.94,NE,34,5.0,6.0,69,0.00,,---,0.00,VWS V14.00,2013-06-07 14:47:00,
2013-06-07 09:52:00,72.1,61.0,29.94,NNE,32,5.0,9.0,68,0.00,,---,0.00,VWS V14.00,2013-06-07 14:52:00,
2013-06-07 09:57:00,72.4,60.0,29.94,NNE,32,5.0,9.0,65,0.00,,---,0.00,VWS V14.00,2013-06-07 14:57:00,
2013-06-07 10:02:00,72.5,60.1,29.94,NNE,32,4.0,9.0,65,0.00,,---,0.00,VWS V14.00,2013-06-07 15:02:00,
2013-06-07 10:07:00,72.7,59.8,29.94,NNE,31,6.0,8.0,64,0.00,,---,0.00,VWS V14.00,2013-06-07 15:07:00,
2013-06-07 10:12:00,73.0,58.8,29.94,NE,36,5.0,10.0,61,0.00,,---,0.00,VWS V14.00,2013-06-07 15:12:00,
2013-06-07 10:17:00,73.3,59.5,29.94,NNE,30,6.0,9.0,62,0.00,,---,0.00,VWS V14.00,2013-06-07 15:17:00,
2013-06-07 10:22:00,73.5,59.2,29.94,NNE,25,10.0,11.0,61,0.00,,---,0.00,VWS V14.00,2013-06-07 15:22:00,
2013-06-07 10:27:00,73.7,59.4,29.94,North,11,8.0,11.0,61,0.00,,---,0.00,VWS V14.00,2013-06-07 15:27:00,
2013-06-07 10:32:00,74.1,58.4,29.94,NNE,14,5.0,10.0,58,0.00,,---,0.00,VWS V14.00,2013-06-07 15:32:00,
2013-06-07 10:37:00,74.4,58.2,29.94,NNE,30,4.0,10.0,57,0.00,,---,0.00,VWS V14.00,2013-06-07 15:37:00,
2013-06-07 10:42:00,74.5,58.3,29.94,North,5,10.0,11.0,57,0.00,,---,0.00,VWS V14.00,2013-06-07 15:42:00,
2013-06-07 10:47:00,74.7,59.0,29.94,NE,49,6.0,11.0,58,0.00,,---,0.00,VWS V14.00,2013-06-07 15:47:00,
2013-06-07 10:52:00,74.9,58.7,29.94,North,9,8.0,11.0,57,0.00,,---,0.00,VWS V14.00,2013-06-07 15:52:00,
2013-06-07 10:57:00,75.0,58.3,29.93,NE,38,6.0,12.0,56,0.00,,---,0.00,VWS V14.00,2013-06-07 15:57:00,
2013-06-07 11:02:00,75.1,58.3,29.93,NE,42,9.0,9.0,56,0.00,,---,0.00,VWS V14.00,2013-06-07 16:02:00,
2013-06-07 11:07:00,75.4,58.1,29.93,NE,46,6.0,11.0,55,0.00,,---,0.00,VWS V14.00,2013-06-07 16:07:00,
2013-06-07 11:12:00,75.6,58.8,29.93,NE,42,9.0,12.0,56,0.00,,---,0.00,VWS V14.00,2013-06-07 16:12:00,
2013-06-07 11:17:00,75.5,59.2,29.93,NE,40,2.0,12.0,57,0.00,,---,0.00,VWS V14.00,2013-06-07 16:17:00,
2013-06-07 11:22:00,75.7,58.9,29.93,NE,42,6.0,12.0,56,0.00,,---,0.00,VWS V14.00,2013-06-07 16:22:00,
2013-06-07 11:27:00,75.9,58.6,29.93,NE,36,5.0,7.0,55,0.00,,---,0.00,VWS V14.00,2013-06-07 16:27:00,
2013-06-07 11:32:00,76.1,58.8,29.93,NNE,20,11.0,12.0,55,0.00,,---,0.00,VWS V14.00,2013-06-07 16:32:00,
2013-06-07 11:37:00,76.0,57.7,29.93,North,355,5.0,12.0,53,0.00,,---,0.00,VWS V14.00,2013-06-07 16:37:00,
2013-06-07 11:42:00,76.1,57.8,29.94,NNE,27,10.0,13.0,53,0.00,,---,0.00,VWS V14.00,2013-06-07 16:42:00,
2013-06-07 11:47:00,76.2,58.4,29.94,North,9,7.0,11.0,54,0.00,,---,0.00,VWS V14.00,2013-06-07 16:47:00,
2013-06-07 11:52:00,76.3,59.0,29.94,NNW,344,9.0,11.0,55,0.00,,---,0.00,VWS V14.00,2013-06-07 16:52:00,
2013-06-07 11:57:00,76.6,58.2,29.94,North,9,6.0,11.0,53,0.00,,---,0.00,VWS V14.00,2013-06-07 16:57:00,
2013-06-07 12:02:00,76.7,57.8,29.93,North,11,0.0,0.0,52,0.00,,---,0.00,VWS V14.00,2013-06-07 17:02:00,
2013-06-07 12:07:00,76.9,57.4,29.93,NE,44,0.0,0.0,51,0.00,,---,0.00,VWS V14.00,2013-06-07 17:07:00,
2013-06-07 12:12:00,76.9,58.5,29.93,NNE,20,0.0,0.0,53,0.00,,---,0.00,VWS V14.00,2013-06-07 17:12:00,
2013-06-07 12:17:00,77.1,57.6,29.93,North,360,0.0,0.0,51,0.00,,---,0.00,VWS V14.00,2013-06-07 17:17:00,
2013-06-07 12:22:00,77.3,55.5,29.93,NNE,19,0.0,0.0,47,0.00,,---,0.00,VWS V14.00,2013-06-07 17:22:00,
2013-06-07 12:27:00,77.6,55.8,29.93,NNE,23,0.0,0.0,47,0.00,,---,0.00,VWS V14.00,2013-06-07 17:27:00,
2013-06-07 12:32:00,77.5,56.9,29.93,NE,38,0.0,0.0,49,0.00,,---,0.00,VWS V14.00,2013-06-07 17:32:00,
2013-06-07 12:37:00,77.5,58.5,29.93,NNE,26,0.0,0.0,52,0.00,,---,0.00,VWS V14.00,2013-06-07 17:37:00,
2013-06-07 12:42:00,77.7,58.2,29.93,North,355,0.0,0.0,51,0.00,,---,0.00,VWS V14.00,2013-06-07 17:42:00,
2013-06-07 12:47:00,78.0,57.9,29.93,NNE,28,0.0,0.0,50,0.00,,---,0.00,VWS V14.00,2013-06-07 17:47:00,
2013-06-07 12:52:00,78.1,57.4,29.93,North,355,0.0,0.0,49,0.00,,---,0.00,VWS V14.00,2013-06-07 17:52:00,
2013-06-07 12:57:00,78.2,56.3,29.93,NE,34,0.0,0.0,47,0.00,,---,0.00,VWS V14.00,2013-06-07 17:57:00,
2013-06-07 13:02:00,78.3,56.4,29.93,NNE,13,0.0,0.0,47,0.00,,---,0.00,VWS V14.00,2013-06-07 18:02:00,
2013-06-07 13:07:00,78.4,56.5,29.93,NNE,22,0.0,0.0,47,0.00,,---,0.00,VWS V14.00,2013-06-07 18:07:00,
2013-06-07 13:13:00,78.4,56.5,29.93,NNW,340,0.0,0.0,47,0.00,,---,0.00,VWS V14.00,2013-06-07 18:13:00,
2013-06-07 13:18:00,78.4,56.5,29.93,North,355,0.0,0.0,47,0.00,,---,0.00,VWS V14.00,2013-06-07 18:18:00,
2013-06-07 13:23:00,78.5,57.2,29.93,North,5,0.0,0.0,48,0.00,,---,0.00,VWS V14.00,2013-06-07 18:23:00,
2013-06-07 13:28:00,78.4,57.7,29.93,NNE,19,0.0,0.0,49,0.00,,---,0.00,VWS V14.00,2013-06-07 18:28:00,
2013-06-07 13:33:00,78.5,57.2,29.93,North,11,0.0,0.0,48,0.00,,---,0.00,VWS V14.00,2013-06-07 18:33:00,
2013-06-07 13:38:00,78.7,57.4,29.92,North,5,0.0,0.0,48,0.00,,---,0.00,VWS V14.00,2013-06-07 18:38:00,
2013-06-07 13:43:00,79.0,58.2,29.92,NE,34,0.0,6.0,49,0.00,,---,0.00,VWS V14.00,2013-06-07 18:43:00,
2013-06-07 13:48:00,79.2,55.4,29.92,North,350,0.0,0.0,44,0.00,,---,0.00,VWS V14.00,2013-06-07 18:48:00,
2013-06-07 13:53:00,79.3,57.3,29.92,North,355,4.0,5.0,47,0.00,,---,0.00,VWS V14.00,2013-06-07 18:53:00,
2013-06-07 13:58:00,79.4,57.4,29.92,NNE,24,0.0,0.0,47,0.00,,---,0.00,VWS V14.00,2013-06-07 18:58:00,
2013-06-07 14:03:00,79.4,56.2,29.92,North,355,0.0,0.0,45,0.00,,---,0.00,VWS V14.00,2013-06-07 19:03:00,
2013-06-07 14:09:00,79.3,57.3,29.92,NNW,340,0.0,0.0,47,0.00,,---,0.00,VWS V14.00,2013-06-07 19:09:00,
2013-06-07 14:14:00,79.1,56.0,29.92,NNE,19,0.0,0.0,45,0.00,,---,0.00,VWS V14.00,2013-06-07 19:14:00,
2013-06-07 14:19:00,79.1,56.0,29.92,NNE,14,0.0,0.0,45,0.00,,---,0.00,VWS V14.00,2013-06-07 19:19:00,
2013-06-07 14:24:00,79.1,57.2,29.92,North,9,0.0,0.0,47,0.00,,---,0.00,VWS V14.00,2013-06-07 19:24:00,
2013-06-07 14:29:00,79.0,58.2,29.91,North,360,0.0,5.0,49,0.00,,---,0.00,VWS V14.00,2013-06-07 19:29:00,
2013-06-07 14:34:00,79.2,57.2,29.91,North,360,0.0,7.0,47,0.00,,---,0.00,VWS V14.00,2013-06-07 19:34:00,
2013-06-07 14:39:00,79.4,58.0,29.91,NNE,30,2.0,7.0,48,0.00,,---,0.00,VWS V14.00,2013-06-07 19:39:00,
2013-06-07 14:44:00,79.7,57.1,29.91,NNW,332,7.0,14.0,46,0.00,,---,0.00,VWS V14.00,2013-06-07 19:44:00,
2013-06-07 14:49:00,79.7,57.7,29.91,NNE,17,2.0,10.0,47,0.00,,---,0.00,VWS V14.00,2013-06-07 19:49:00,
2013-06-07 14:54:00,79.6,56.4,29.91,North,5,0.0,10.0,45,0.00,,---,0.00,VWS V14.00,2013-06-07 19:54:00,
2013-06-07 15:00:00,79.4,57.4,29.90,North,355,0.0,4.0,47,0.00,,---,0.00,VWS V14.00,2013-06-07 20:00:00,
2013-06-07 15:05:00,79.5,57.5,29.90,NW,319,0.0,0.0,47,0.00,,---,0.00,VWS V14.00,2013-06-07 20:05:00,
2013-06-07 15:10:00,79.6,57.6,29.90,North,360,0.0,0.0,47,0.00,,---,0.00,VWS V14.00,2013-06-07 20:10:00,
2013-06-07 15:15:00,79.6,58.2,29.90,NNE,20,0.0,7.0,48,0.00,,---,0.00,VWS V14.00,2013-06-07 20:15:00,
2013-06-07 15:21:00,79.8,58.4,29.90,NNE,24,2.0,5.0,48,0.00,,---,0.00,VWS V14.00,2013-06-07 20:21:00,
2013-06-07 15:26:00,80.0,59.7,29.90,North,10,0.0,10.0,50,0.00,,---,0.00,VWS V14.00,2013-06-07 20:26:00,
2013-06-07 15:31:00,80.0,58.0,29.90,NNE,22,4.0,10.0,47,0.00,,---,0.00,VWS V14.00,2013-06-07 20:31:00,
2013-06-07 15:36:00,79.7,57.1,29.90,NNE,28,2.0,7.0,46,0.00,,---,0.00,VWS V14.00,2013-06-07 20:36:00,
2013-06-07 15:41:00,79.2,57.8,29.90,NE,38,0.0,5.0,48,0.00,,---,0.00,VWS V14.00,2013-06-07 20:41:00,
2013-06-07 15:46:00,78.9,58.7,29.90,NE,38,0.0,0.0,50,0.00,,---,0.00,VWS V14.00,2013-06-07 20:46:00,
2013-06-07 15:51:00,78.8,58.0,29.90,NE,39,0.0,5.0,49,0.00,,---,0.00,VWS V14.00,2013-06-07 20:51:00,
2013-06-07 15:56:00,78.6,57.9,29.90,NE,44,0.0,0.0,49,0.00,,---,0.00,VWS V14.00,2013-06-07 20:56:00,
2013-06-07 16:01:00,78.3,57.0,29.89,NE,37,0.0,0.0,48,0.00,,---,0.00,VWS V14.00,2013-06-07 21:01:00,
2013-06-07 16:06:00,78.1,57.4,29.90,NE,36,0.0,0.0,49,0.00,,---,0.00,VWS V14.00,2013-06-07 21:06:00,
2013-06-07 16:11:00,78.3,57.6,29.89,NNE,30,0.0,0.0,49,0.00,,---,0.00,VWS V14.00,2013-06-07 21:11:00,
2013-06-07 16:16:00,78.7,58.0,29.89,NNE,30,0.0,0.0,49,0.00,,---,0.00,VWS V14.00,2013-06-07 21:16:00,
2013-06-07 16:22:00,78.9,57.0,29.89,ENE,58,0.0,6.0,47,0.00,,---,0.00,VWS V14.00,2013-06-07 21:22:00,
2013-06-07 16:27:00,79.2,58.4,29.89,NE,45,0.0,0.0,49,0.00,,---,0.00,VWS V14.00,2013-06-07 21:27:00,
2013-06-07 16:32:00,79.7,57.7,29.89,NE,45,0.0,0.0,47,0.00,,---,0.00,VWS V14.00,2013-06-07 21:32:00,
2013-06-07 16:37:00,80.0,59.1,29.89,NE,37,0.0,6.0,49,0.00,,---,0.00,VWS V14.00,2013-06-07 21:37:00,
2013-06-07 16:42:00,80.0,58.0,29.88,NE,36,0.0,0.0,47,0.00,,---,0.00,VWS V14.00,2013-06-07 21:42:00,
2013-06-07 16:47:00,79.8,57.8,29.88,NE,36,0.0,0.0,47,0.00,,---,0.00,VWS V14.00,2013-06-07 21:47:00,
2013-06-07 16:52:00,79.7,59.4,29.88,NNE,33,0.0,0.0,50,0.00,,---,0.00,VWS V14.00,2013-06-07 21:52:00,
2013-06-07 16:57:00,79.5,58.1,29.88,NE,34,0.0,0.0,48,0.00,,---,0.00,VWS V14.00,2013-06-07 21:57:00,
2013-06-07 17:02:00,79.1,58.9,29.88,NNE,33,0.0,0.0,50,0.00,,---,0.00,VWS V14.00,2013-06-07 22:02:00,
2013-06-07 17:07:00,78.7,59.1,29.88,NNE,33,0.0,0.0,51,0.00,,---,0.00,VWS V14.00,2013-06-07 22:07:00,
2013-06-07 17:12:00,78.5,58.3,29.88,NNE,33,0.0,0.0,50,0.00,,---,0.00,VWS V14.00,2013-06-07 22:12:00,
2013-06-07 17:17:00,78.3,58.7,29.88,NNE,33,0.0,0.0,51,0.00,,---,0.00,VWS V14.00,2013-06-07 22:17:00,
2013-06-07 17:22:00,78.3,60.3,29.88,NNE,33,0.0,0.0,54,0.00,,---,0.00,VWS V14.00,2013-06-07 22:22:00,
2013-06-07 17:27:00,78.4,58.2,29.88,NNE,33,0.0,0.0,50,0.00,,---,0.00,VWS V14.00,2013-06-07 22:27:00,
2013-06-07 17:32:00,78.7,58.0,29.87,NNE,33,0.0,0.0,49,0.00,,---,0.00,VWS V14.00,2013-06-07 22:32:00,
2013-06-07 17:37:00,78.8,58.6,29.87,NNE,33,0.0,0.0,50,0.00,,---,0.00,VWS V14.00,2013-06-07 22:37:00,
2013-06-07 17:43:00,79.1,57.2,29.87,NNE,33,0.0,0.0,47,0.00,,---,0.00,VWS V14.00,2013-06-07 22:43:00,
2013-06-07 17:48:00,79.5,58.7,29.87,NNE,33,4.0,4.0,49,0.00,,---,0.00,VWS V14.00,2013-06-07 22:48:00,
2013-06-07 17:53:00,79.6,57.6,29.87,NNE,33,2.0,2.0,47,0.00,,---,0.00,VWS V14.00,2013-06-07 22:53:00,
2013-06-07 17:58:00,79.5,58.1,29.87,NNE,33,0.0,0.0,48,0.00,,---,0.00,VWS V14.00,2013-06-07 22:58:00,
2013-06-07 18:03:00,79.4,57.4,29.87,NNE,33,0.0,0.0,47,0.00,,---,0.00,VWS V14.00,2013-06-07 23:03:00,
2013-06-07 18:08:00,78.9,58.1,29.87,NNE,33,0.0,0.0,49,0.00,,---,0.00,VWS V14.00,2013-06-07 23:08:00,
2013-06-07 18:13:00,78.7,58.5,29.86,NNE,33,0.0,0.0,50,0.00,,---,0.00,VWS V14.00,2013-06-07 23:13:00,
2013-06-07 18:18:00,78.5,57.8,29.86,NNE,33,0.0,0.0,49,0.00,,---,0.00,VWS V14.00,2013-06-07 23:18:00,
2013-06-07 18:24:00,78.4,58.8,29.86,NNE,33,0.0,0.0,51,0.00,,---,0.00,VWS V14.00,2013-06-07 23:24:00,
2013-06-07 18:29:00,78.4,56.5,29.86,NNE,33,0.0,2.0,47,0.00,,---,0.00,VWS V14.00,2013-06-07 23:29:00,
2013-06-07 18:34:00,78.5,57.2,29.86,NNE,33,0.0,0.0,48,0.00,,---,0.00,VWS V14.00,2013-06-07 23:34:00,
2013-06-07 18:39:00,78.7,58.5,29.86,NNE,33,0.0,0.0,50,0.00,,---,0.00,VWS V14.00,2013-06-07 23:39:00,
2013-06-07 18:44:00,79.2,59.5,29.86,NNE,33,0.0,0.0,51,0.00,,---,0.00,VWS V14.00,2013-06-07 23:44:00,
2013-06-07 18:49:00,79.0,58.2,29.86,NNE,33,0.0,0.0,49,0.00,,---,0.00,VWS V14.00,2013-06-07 23:49:00,
2013-06-07 18:54:00,78.7,58.5,29.86,NNE,33,0.0,0.0,50,0.00,,---,0.00,VWS V14.00,2013-06-07 23:54:00,
2013-06-07 18:59:00,78.3,58.2,29.86,NNE,33,0.0,0.0,50,0.00,,---,0.00,VWS V14.00,2013-06-07 23:59:00,
2013-06-07 19:04:00,78.2,58.6,29.86,NNE,33,0.0,0.0,51,0.00,,---,0.00,VWS V14.00,2013-06-08 00:04:00,
2013-06-07 19:10:00,78.0,57.9,29.86,NNE,33,0.0,0.0,50,0.00,,---,0.00,VWS V14.00,2013-06-08 00:10:00,
2013-06-07 19:15:00,78.0,59.0,29.86,NNE,33,0.0,0.0,52,0.00,,---,0.00,VWS V14.00,2013-06-08 00:15:00,
2013-06-07 19:20:00,78.0,59.5,29.86,NNE,33,0.0,0.0,53,0.00,,---,0.00,VWS V14.00,2013-06-08 00:20:00,
2013-06-07 19:25:00,78.0,59.0,29.86,NNE,33,0.0,0.0,52,0.00,,---,0.00,VWS V14.00,2013-06-08 00:25:00,
2013-06-07 19:30:00,78.0,60.0,29.86,NNE,33,0.0,0.0,54,0.00,,---,0.00,VWS V14.00,2013-06-08 00:30:00,
2013-06-07 19:35:00,77.9,59.9,29.86,NNE,33,0.0,0.0,54,0.00,,---,0.00,VWS V14.00,2013-06-08 00:35:00,
2013-06-07 19:40:00,77.9,59.9,29.86,NNE,33,0.0,0.0,54,0.00,,---,0.00,VWS V14.00,2013-06-08 00:40:00,
2013-06-07 19:45:00,77.9,59.4,29.86,NNE,33,0.0,0.0,53,0.00,,---,0.00,VWS V14.00,2013-06-08 00:45:00,
2013-06-07 19:50:00,77.9,59.4,29.86,NNE,33,0.0,0.0,53,0.00,,---,0.00,VWS V14.00,2013-06-08 00:50:00,
2013-06-07 19:55:00,77.9,59.9,29.86,NNE,33,0.0,0.0,54,0.00,,---,0.00,VWS V14.00,2013-06-08 00:55:00,
2013-06-07 20:01:00,77.9,60.5,29.87,NNE,33,0.0,0.0,55,0.00,,---,0.00,VWS V14.00,2013-06-08 01:01:00,
2013-06-07 20:07:00,77.9,60.5,29.86,NNE,33,0.0,0.0,55,0.00,,---,0.00,VWS V14.00,2013-06-08 01:07:00,
2013-06-07 20:12:00,77.8,59.3,29.86,NNE,33,0.0,0.0,53,0.00,,---,0.00,VWS V14.00,2013-06-08 01:12:00,
2013-06-07 20:17:00,77.4,59.0,29.85,NNE,33,0.0,0.0,53,0.00,,---,0.00,VWS V14.00,2013-06-08 01:17:00,
2013-06-07 20:22:00,76.7,60.8,29.85,NNE,33,0.0,0.0,58,0.00,,---,0.00,VWS V14.00,2013-06-08 01:22:00,
2013-06-07 20:27:00,76.0,62.5,29.85,NNE,33,0.0,0.0,63,0.00,,---,0.00,VWS V14.00,2013-06-08 01:27:00,
2013-06-07 20:32:00,74.9,62.3,29.85,NNE,33,0.0,0.0,65,0.00,,---,0.00,VWS V14.00,2013-06-08 01:32:00,
2013-06-07 20:37:00,73.6,62.0,29.85,NNE,33,0.0,0.0,67,0.00,,---,0.00,VWS V14.00,2013-06-08 01:37:00,
2013-06-07 20:42:00,72.6,61.0,29.85,NNE,33,0.0,0.0,67,0.00,,---,0.00,VWS V14.00,2013-06-08 01:42:00,
2013-06-07 20:47:00,71.7,60.2,29.85,NNE,33,0.0,0.0,67,0.00,,---,0.00,VWS V14.00,2013-06-08 01:47:00,
2013-06-07 20:52:00,70.9,60.6,29.86,NNE,33,0.0,0.0,70,0.00,,---,0.00,VWS V14.00,2013-06-08 01:52:00,
2013-06-07 20:57:00,70.4,60.2,29.86,NNE,33,0.0,0.0,70,0.00,,---,0.00,VWS V14.00,2013-06-08 01:57:00,
2013-06-07 21:02:00,69.8,59.6,29.86,NNE,33,0.0,0.0,70,0.00,,---,0.00,VWS V14.00,2013-06-08 02:02:00,
2013-06-07 21:07:00,69.2,59.8,29.86,NNE,33,0.0,0.0,72,0.00,,---,0.00,VWS V14.00,2013-06-08 02:07:00,
2013-06-07 21:13:00,68.7,59.7,29.86,NNE,33,0.0,0.0,73,0.00,,---,0.00,VWS V14.00,2013-06-08 02:13:00,
2013-06-07 21:18:00,68.5,60.3,29.86,NNE,33,0.0,0.0,75,0.00,,---,0.00,VWS V14.00,2013-06-08 02:18:00,
2013-06-07 21:23:00,68.4,59.8,29.86,NNE,33,0.0,0.0,74,0.00,,---,0.00,VWS V14.00,2013-06-08 02:23:00,
2013-06-07 21:28:00,68.2,60.3,29.87,NNE,33,0.0,0.0,76,0.00,,---,0.00,VWS V14.00,2013-06-08 02:28:00,
2013-06-07 21:33:00,68.1,60.3,29.87,NNE,33,0.0,0.0,76,0.00,,---,0.00,VWS V14.00,2013-06-08 02:33:00,
2013-06-07 21:38:00,67.9,59.3,29.88,NNE,33,0.0,0.0,74,0.00,,---,0.00,VWS V14.00,2013-06-08 02:38:00,
2013-06-07 21:43:00,67.9,59.7,29.87,NNE,33,0.0,0.0,75,0.00,,---,0.00,VWS V14.00,2013-06-08 02:43:00,
2013-06-07 21:48:00,67.8,59.2,29.87,NNE,33,0.0,0.0,74,0.00,,---,0.00,VWS V14.00,2013-06-08 02:48:00,
2013-06-07 21:53:00,67.8,60.3,29.87,NNE,33,0.0,0.0,77,0.00,,---,0.00,VWS V14.00,2013-06-08 02:53:00,
2013-06-07 21:58:00,67.7,61.0,29.87,NNE,33,0.0,0.0,79,0.00,,---,0.00,VWS V14.00,2013-06-08 02:58:00,
2013-06-07 22:03:00,67.6,60.5,29.87,NNE,33,0.0,0.0,78,0.00,,---,0.00,VWS V14.00,2013-06-08 03:03:00,
2013-06-07 22:08:00,67.4,60.3,29.87,NNE,33,0.0,0.0,78,0.00,,---,0.00,VWS V14.00,2013-06-08 03:08:00,
2013-06-07 22:14:00,67.3,60.2,29.87,NNE,33,0.0,0.0,78,0.00,,---,0.00,VWS V14.00,2013-06-08 03:14:00,
2013-06-07 22:19:00,67.1,60.0,29.88,NNE,33,0.0,0.0,78,0.00,,---,0.00,VWS V14.00,2013-06-08 03:19:00,
2013-06-07 22:24:00,66.7,59.6,29.88,NNE,33,0.0,0.0,78,0.00,,---,0.00,VWS V14.00,2013-06-08 03:24:00,
2013-06-07 22:29:00,66.3,58.5,29.88,NNE,33,0.0,0.0,76,0.00,,---,0.00,VWS V14.00,2013-06-08 03:29:00,
2013-06-07 22:34:00,66.1,58.3,29.88,NNE,33,0.0,0.0,76,0.00,,---,0.00,VWS V14.00,2013-06-08 03:34:00,
2013-06-07 22:39:00,66.1,59.8,29.87,NNE,33,0.0,0.0,80,0.00,,---,0.00,VWS V14.00,2013-06-08 03:39:00,
2013-06-07 22:44:00,66.1,59.8,29.88,NNE,33,0.0,0.0,80,0.00,,---,0.00,VWS V14.00,2013-06-08 03:44:00,
2013-06-07 22:49:00,66.0,59.7,29.88,NNE,33,0.0,0.0,80,0.00,,---,0.00,VWS V14.00,2013-06-08 03:49:00,
2013-06-07 22:54:00,65.8,59.5,29.88,NNE,33,0.0,0.0,80,0.00,,---,0.00,VWS V14.00,2013-06-08 03:54:00,
2013-06-07 22:59:00,65.6,59.3,29.88,NNE,33,0.0,0.0,80,0.00,,---,0.00,VWS V14.00,2013-06-08 03:59:00,
2013-06-07 23:01:00,65.6,59.3,29.88,NNE,33,0.0,0.0,80,0.00,,---,0.00,VWS V14.00,2013-06-08 04:01:00,
2013-06-07 23:06:00,65.4,59.4,29.88,NNE,33,0.0,0.0,81,0.00,,---,0.00,VWS V14.00,2013-06-08 04:06:00,
2013-06-07 23:11:00,65.2,59.2,29.87,NNE,33,0.0,0.0,81,0.00,,---,0.00,VWS V14.00,2013-06-08 04:11:00,
2013-06-07 23:16:00,65.1,59.1,29.87,NNE,33,0.0,0.0,81,0.00,,---,0.00,VWS V14.00,2013-06-08 04:16:00,
2013-06-07 23:22:00,65.0,59.0,29.87,NNE,33,0.0,0.0,81,0.00,,---,0.00,VWS V14.00,2013-06-08 04:22:00,
2013-06-07 23:27:00,64.8,58.8,29.87,NNE,33,0.0,0.0,81,0.00,,---,0.00,VWS V14.00,2013-06-08 04:27:00,
2013-06-07 23:32:00,64.7,58.7,29.87,NNE,33,0.0,0.0,81,0.00,,---,0.00,VWS V14.00,2013-06-08 04:32:00,
2013-06-07 23:37:00,64.5,58.2,29.86,NNE,33,0.0,0.0,80,0.00,,---,0.00,VWS V14.00,2013-06-08 04:37:00,
2013-06-07 23:42:00,64.4,58.5,29.86,NNE,33,0.0,0.0,81,0.00,,---,0.00,VWS V14.00,2013-06-08 04:42:00,
2013-06-07 23:47:00,64.2,57.9,29.86,NNE,33,0.0,0.0,80,0.00,,---,0.00,VWS V14.00,2013-06-08 04:47:00,
2013-06-07 23:52:00,64.1,57.8,29.86,NNE,33,0.0,0.0,80,0.00,,---,0.00,VWS V14.00,2013-06-08 04:52:00,
2013-06-07 23:57:00,64.0,57.7,29.86,NNE,33,0.0,0.0,80,0.00,,---,0.00,VWS V14.00,2013-06-08 04:57:00,